ASQ491 KCRW-KPKB

Flight info

Callsign ASQ491
Flight time 0h 20m
Altitude 10000
Route DCT COSIK DCT GLAZE DCT KETTA DCT GEMEH DCT JACEE DCT HADUP DCT
Aircraft E110/L-SDFGHRY/S

Departure

Time 2026-05-06 12:47
Airport Yeager Airport (KCRW)

Arrival

Time 2026-05-06 13:08
Airport Mid Ohio Valley Regional Airport (KPKB)
Time Latitude Longitude Altitude Speed Heading
2026-05-06 12:20 38.37289 -81.59273 930 ft 0 kts 47°
2026-05-06 12:35 38.37290 -81.59273 930 ft 0 kts 47°
2026-05-06 12:36 38.37285 -81.59280 930 ft 2 kts 47°
2026-05-06 12:36 38.37276 -81.59292 932 ft 2 kts 47°
2026-05-06 12:36 38.37270 -81.59307 931 ft 2 kts 94°
2026-05-06 12:36 38.37277 -81.59321 931 ft 2 kts 158°
2026-05-06 12:38 38.37272 -81.59320 931 ft 6 kts 166°
2026-05-06 12:38 38.37224 -81.59291 933 ft 8 kts 141°
2026-05-06 12:38 38.37196 -81.59265 932 ft 0 kts 144°
2026-05-06 12:39 38.37169 -81.59245 935 ft 6 kts 164°
2026-05-06 12:39 38.37139 -81.59256 933 ft 4 kts 228°
2026-05-06 12:39 38.37140 -81.59291 935 ft 9 kts 309°
2026-05-06 12:40 38.37225 -81.59377 935 ft 18 kts 322°
2026-05-06 12:40 38.37307 -81.59462 933 ft 15 kts 321°
2026-05-06 12:40 38.37295 -81.59553 935 ft 10 kts 234°
2026-05-06 12:40 38.37258 -81.59617 936 ft 8 kts 230°
2026-05-06 12:41 38.37230 -81.59659 937 ft 5 kts 227°
2026-05-06 12:41 38.37179 -81.59725 939 ft 15 kts 225°
2026-05-06 12:41 38.37112 -81.59813 942 ft 12 kts 226°
2026-05-06 12:41 38.37062 -81.59881 944 ft 9 kts 226°
2026-05-06 12:42 38.37053 -81.59920 944 ft 0 kts 295°
2026-05-06 12:44 38.37056 -81.59928 944 ft 7 kts 298°
2026-05-06 12:45 38.37129 -81.59936 943 ft 13 kts 48°
2026-05-06 12:45 38.37141 -81.59917 942 ft 0 kts 50°
2026-05-06 12:45 38.37207 -81.59827 941 ft 48 kts 46°
2026-05-06 12:46 38.37562 -81.59237 955 ft 113 kts 48°
2026-05-06 12:46 38.38195 -81.58420 1114 ft 140 kts 47°
2026-05-06 12:46 38.38917 -81.57453 1219 ft 162 kts 49°
2026-05-06 12:46 38.39711 -81.56352 1268 ft 173 kts 49°
2026-05-06 12:47 38.40547 -81.55222 1363 ft 177 kts 48°
2026-05-06 12:47 38.41407 -81.54079 1426 ft 179 kts 47°
2026-05-06 12:47 38.42269 -81.52947 1707 ft 177 kts 47°
2026-05-06 12:47 38.43119 -81.51817 1908 ft 177 kts 47°
2026-05-06 12:48 38.44078 -81.50851 2177 ft 180 kts 27°
2026-05-06 12:48 38.45188 -81.50066 2376 ft 185 kts 27°
2026-05-06 12:48 38.46310 -81.49237 2502 ft 187 kts 27°
2026-05-06 12:48 38.47441 -81.48421 2709 ft 187 kts 26°
2026-05-06 12:49 38.48251 -81.47802 2933 ft 188 kts 26°
2026-05-06 12:49 38.49366 -81.46921 3207 ft 189 kts 26°
2026-05-06 12:49 38.50466 -81.46002 3438 ft 189 kts 27°
2026-05-06 12:49 38.51555 -81.45068 3694 ft 189 kts 26°
2026-05-06 12:50 38.52645 -81.44136 3959 ft 188 kts 27°
2026-05-06 12:50 38.53731 -81.43204 4183 ft 187 kts 25°
2026-05-06 12:50 38.54866 -81.42657 4298 ft 165 kts 351°
2026-05-06 12:50 38.56009 -81.42566 4538 ft 166 kts 350°
2026-05-06 12:51 38.57227 -81.42467 4692 ft 185 kts 350°
2026-05-06 12:51 38.58550 -81.42394 4917 ft 194 kts 349°
2026-05-06 12:51 38.59916 -81.42324 5156 ft 199 kts 350°
2026-05-06 12:51 38.59793 -81.44913 5409 ft 170 kts 301°
2026-05-06 12:52 38.60493 -81.45158 6034 ft 140 kts 340°
2026-05-06 12:52 38.61618 -81.45054 6159 ft 176 kts 351°
2026-05-06 12:52 38.62888 -81.44961 6343 ft 189 kts 349°
2026-05-06 12:52 38.64213 -81.44884 6549 ft 197 kts 350°
2026-05-06 12:53 38.65587 -81.44803 6783 ft 198 kts 350°
2026-05-06 12:53 38.66971 -81.44728 7037 ft 199 kts 349°
2026-05-06 12:53 38.68321 -81.44823 7291 ft 190 kts 337°
2026-05-06 12:53 38.69610 -81.45157 7552 ft 188 kts 335°
2026-05-06 12:54 38.70896 -81.45486 7815 ft 189 kts 335°
2026-05-06 12:54 38.72184 -81.45817 8072 ft 189 kts 335°
2026-05-06 12:54 38.73469 -81.46152 8331 ft 188 kts 335°
2026-05-06 12:54 38.74750 -81.46489 8575 ft 188 kts 334°
2026-05-06 12:55 38.75659 -81.46727 8748 ft 188 kts 335°
2026-05-06 12:55 38.76940 -81.47049 8984 ft 188 kts 335°
2026-05-06 12:55 38.78221 -81.47374 9220 ft 187 kts 335°
2026-05-06 12:55 38.79500 -81.47696 9465 ft 188 kts 335°
2026-05-06 12:56 38.80780 -81.48012 9664 ft 187 kts 335°
2026-05-06 12:56 38.82061 -81.48324 9850 ft 187 kts 335°
2026-05-06 12:56 38.83339 -81.48633 10048 ft 187 kts 335°
2026-05-06 12:56 38.84621 -81.48937 10227 ft 187 kts 335°
2026-05-06 12:57 38.85866 -81.49324 10436 ft 181 kts 328°
2026-05-06 12:57 38.87080 -81.49841 10475 ft 188 kts 327°
2026-05-06 12:57 38.88340 -81.50407 10470 ft 194 kts 327°
2026-05-06 12:57 38.89608 -81.50993 10471 ft 198 kts 327°
2026-05-06 12:58 38.90918 -81.51602 10470 ft 201 kts 327°
2026-05-06 12:58 38.92239 -81.52224 10443 ft 203 kts 327°
2026-05-06 12:58 38.93587 -81.52868 10332 ft 209 kts 327°
2026-05-06 12:58 38.95002 -81.53574 9854 ft 226 kts 327°
2026-05-06 12:59 38.96485 -81.54351 9372 ft 234 kts 326°
2026-05-06 12:59 38.97994 -81.55182 8872 ft 236 kts 324°
2026-05-06 12:59 38.99451 -81.56156 8386 ft 235 kts 320°
2026-05-06 12:59 39.00828 -81.57275 7906 ft 233 kts 317°
2026-05-06 13:00 39.02177 -81.58444 7427 ft 234 kts 316°
2026-05-06 13:00 39.03531 -81.59622 6956 ft 235 kts 317°
2026-05-06 13:00 39.04879 -81.60819 6491 ft 235 kts 317°
2026-05-06 13:00 39.06216 -81.62025 6007 ft 233 kts 317°
2026-05-06 13:01 39.07170 -81.62900 5654 ft 234 kts 317°
2026-05-06 13:01 39.08474 -81.64116 5162 ft 236 kts 319°
2026-05-06 13:01 39.10054 -81.64763 4971 ft 246 kts 354°
2026-05-06 13:01 39.11676 -81.64083 4976 ft 249 kts 24°
2026-05-06 13:02 39.13209 -81.63122 4963 ft 241 kts 15°
2026-05-06 13:02 39.14760 -81.62357 4967 ft 237 kts 14°
2026-05-06 13:02 39.16313 -81.61612 4837 ft 241 kts 14°
2026-05-06 13:02 39.17886 -81.60828 4667 ft 244 kts 17°
2026-05-06 13:03 39.19439 -81.59887 4493 ft 250 kts 26°
2026-05-06 13:03 39.20766 -81.58417 4316 ft 254 kts 41°
2026-05-06 13:03 39.22050 -81.56860 4140 ft 253 kts 40°
2026-05-06 13:03 39.23306 -81.55266 3964 ft 252 kts 43°
2026-05-06 13:04 39.24455 -81.53734 3786 ft 224 kts 44°
2026-05-06 13:04 39.25486 -81.52332 3559 ft 209 kts 44°
2026-05-06 13:04 39.26447 -81.51032 3302 ft 198 kts 43°
2026-05-06 13:04 39.27427 -81.49814 3057 ft 194 kts 41°
2026-05-06 13:05 39.27812 -81.49346 2949 ft 192 kts 39°
2026-05-06 13:05 39.28796 -81.48164 2560 ft 197 kts 40°
2026-05-06 13:05 39.27484 -81.49502 2212 ft 199 kts 35°
2026-05-06 13:05 39.28533 -81.48298 1482 ft 199 kts 41°
2026-05-06 13:06 39.29371 -81.47290 1247 ft 137 kts 38°
2026-05-06 13:06 39.30067 -81.46630 1122 ft 116 kts 34°
2026-05-06 13:06 39.30752 -81.46086 1079 ft 117 kts 27°
2026-05-06 13:06 39.31494 -81.45592 1064 ft 120 kts 25°
2026-05-06 13:07 39.32040 -81.45255 1060 ft 121 kts 23°
2026-05-06 13:07 39.32814 -81.44835 991 ft 118 kts 21°
2026-05-06 13:07 39.33538 -81.44460 856 ft 105 kts 21°
2026-05-06 13:07 39.34111 -81.44169 825 ft 73 kts 20°
2026-05-06 13:08 39.34495 -81.43959 834 ft 49 kts 17°
2026-05-06 13:08 39.34704 -81.43845 839 ft 14 kts 64°
2026-05-06 13:08 39.34652 -81.43764 838 ft 6 kts 151°
2026-05-06 13:08 39.34599 -81.43724 840 ft 12 kts 141°
2026-05-06 13:09 39.34602 -81.43651 841 ft 11 kts 325°
2026-05-06 13:09 39.34604 -81.43668 834 ft 0 kts 225°